Del Bajio, Mexico

4:26 AM CDT on April 25, 2017 (GMT -0500)
De Guanajuato International

Weather History for MMLO - November, 2012

Change the Weather History Date:

Tuesday, November 6, 2012

  Actual Average Record
Temperature  
Mean Temperature 68 °F -  
Max Temperature 80 °F 78 °F 87 °F (2005)
Min Temperature 55 °F 47 °F 32 °F (2010)
Cooling Degree Days 2    
Growing Degree Days 18 (Base 50)    
Moisture  
Dew Point 43 °F    
Average Humidity 46    
Maximum Humidity 77    
Minimum Humidity 24    
Precipitation  
Precipitation 0.00 in - - ()
Sea Level Pressure  
Sea Level Pressure 30.16 in    
Wind  
Wind Speed 5 mph ()    
Max Wind Speed 16 mph    
Max Gust Speed -    
Visibility 9.1 miles    
Events      
Averages and records for this station are not official NWS values.
T = Trace of Precipitation, MM = Missing Value Source: Averaged Metar Reports

Daily Weather History Graph

Daily Weather History Graph

Search for Another Location

Airport or City:

Trip Planner

Search our weather history database for the weather conditions in past years. The results will help you decide how hot, cold, wet, or windy it might be!

Date:

Astronomy

Nov. 06, 2012 Rise Set
Actual Time 6:51 AM CST 6:07 PM CST
Civil Twilight 6:28 AM CST 6:30 PM CST
Nautical Twilight 6:01 AM CST 6:57 PM CST
Astronomical Twilight 5:35 AM CST 7:23 PM CST
Moon No Moon Rise 12:51 PM CST (11/6)
Length of Visible Light 12h 02m
Length of Day
11h 16m
Waning Gibbous, 53% of the Moon is Illuminated
Nov 6
Waning Gibbous
Nov 6
Last Quarter
Nov 13
New
Nov 20
First Quarter
Nov 28
Full

Hourly Weather History & Observations

Time (CST) Temp. Dew Point Humidity Pressure Visibility Wind Dir Wind Speed Gust Speed Precip Events Conditions
2:15 AM 59.0 °F 51.8 °F 77% 30.27 in 8.0 mi Calm Calm - N/A   Overcast
2:40 AM 59.0 °F 50.0 °F 72% 29.97 in 8.0 mi Calm Calm - N/A   Overcast
5:00 AM 57.2 °F 48.2 °F 72% 30.27 in 8.0 mi Calm Calm - N/A   Overcast
5:47 AM 57.2 °F 48.2 °F 72% 29.98 in 8.0 mi Calm Calm - N/A   Mostly Cloudy
6:42 AM 55.4 °F 44.6 °F 67% 30.29 in 10.0 mi Calm Calm - N/A   Scattered Clouds
7:50 AM 59.0 °F 46.4 °F 63% 30.30 in 10.0 mi NE 8.1 mph - N/A   Mostly Cloudy
8:47 AM 66.2 °F 44.6 °F 46% 30.02 in 10.0 mi NNE 9.2 mph - N/A   Mostly Cloudy
9:50 AM 71.6 °F 42.8 °F 35% 30.34 in 10.0 mi ESE 9.2 mph - N/A   Scattered Clouds
10:49 AM 75.2 °F 39.2 °F 27% 30.36 in 10.0 mi NE 13.8 mph - N/A   Scattered Clouds
11:48 AM 77.0 °F 42.8 °F 29% 29.92 in 10.0 mi East 6.9 mph - N/A   Scattered Clouds
12:43 PM 75.2 °F 42.8 °F 31% 30.28 in 10.0 mi North 11.5 mph - N/A   Scattered Clouds
1:49 PM 80.6 °F 41.0 °F 24% 30.25 in 10.0 mi NNE 9.2 mph - N/A   Scattered Clouds
2:48 PM 80.6 °F 41.0 °F 24% 29.81 in 10.0 mi NNE 4.6 mph - N/A   Scattered Clouds
3:40 PM 75.2 °F 39.2 °F 27% 30.24 in 10.0 mi ENE 10.4 mph - N/A   Mostly Cloudy
4:48 PM 73.4 °F 41.0 °F 31% 30.24 in 10.0 mi ENE 10.4 mph - N/A   Mostly Cloudy
5:51 PM 69.8 °F 41.0 °F 35% 29.89 in 10.0 mi ENE 9.2 mph - N/A   Mostly Cloudy
7:44 PM 62.6 °F 39.2 °F 42% 30.30 in 8.0 mi ENE 11.5 mph - N/A   Mostly Cloudy
8:51 PM 62.6 °F 44.6 °F 52% 29.96 in 8.0 mi NE 16.1 mph - N/A   Scattered Clouds
9:40 PM 60.8 °F 42.8 °F 52% 30.30 in 8.0 mi NE 11.5 mph - N/A   Scattered Clouds
10:48 PM 59.0 °F 39.2 °F 48% 30.33 in 8.0 mi ENE 5.8 mph - N/A   Scattered Clouds
11:44 PM 57.2 °F 37.4 °F 48% 29.94 in 8.0 mi ENE 6.9 mph - N/A   Scattered Clouds